Year,Month,Day,Hour,Minute,Value (Times are PST for temperature in C)
2020,12,08,00,00,12.10
2020,12,08,00,01,12.10
2020,12,08,00,02,12.10
2020,12,08,00,03,12.10
2020,12,08,00,04,12.10
2020,12,08,00,05,12.10
2020,12,08,00,06,12.10
2020,12,08,00,07,12.10
2020,12,08,00,08,12.10
2020,12,08,00,09,12.10
2020,12,08,00,10,12.10
2020,12,08,00,11,12.10
2020,12,08,00,12,12.10
2020,12,08,00,13,12.10
2020,12,08,00,14,12.10
2020,12,08,00,15,12.10
2020,12,08,00,16,12.10
2020,12,08,00,17,12.10
2020,12,08,00,18,12.10
2020,12,08,00,19,12.10
2020,12,08,00,20,12.10
2020,12,08,00,21,12.10
2020,12,08,00,22,12.10
2020,12,08,00,23,12.10
2020,12,08,00,24,12.10
2020,12,08,00,25,12.10
2020,12,08,00,26,12.10
2020,12,08,00,27,12.10
2020,12,08,00,28,12.10
2020,12,08,00,29,12.10
2020,12,08,00,30,12.10
2020,12,08,00,31,12.10
2020,12,08,00,32,12.10
2020,12,08,00,33,12.10
2020,12,08,00,34,12.00
2020,12,08,00,35,11.90
2020,12,08,00,36,11.70
2020,12,08,00,37,11.50
2020,12,08,00,38,11.40
2020,12,08,00,39,11.20
2020,12,08,00,40,11.10
2020,12,08,00,41,11.00
2020,12,08,00,42,10.90
2020,12,08,00,43,10.80
2020,12,08,00,44,10.70
2020,12,08,00,45,10.60
2020,12,08,00,46,10.50
2020,12,08,00,47,10.40
2020,12,08,00,48,10.30
2020,12,08,00,49,10.30
2020,12,08,00,50,10.20
2020,12,08,00,51,10.20
2020,12,08,00,52,10.20
2020,12,08,00,53,10.10
2020,12,08,00,54,10.10
2020,12,08,00,55,10.10
2020,12,08,00,56,10.10
2020,12,08,00,57,10.00
2020,12,08,00,58,10.00
2020,12,08,00,59,10.00
2020,12,08,01,00,10.00
2020,12,08,01,01,9.90
2020,12,08,01,02,9.90
2020,12,08,01,03,9.90
2020,12,08,01,04,9.90
2020,12,08,01,05,9.90
2020,12,08,01,06,9.80
2020,12,08,01,07,9.80
2020,12,08,01,08,9.80
2020,12,08,01,09,9.80
2020,12,08,01,10,9.80
2020,12,08,01,11,9.70
2020,12,08,01,12,9.70
2020,12,08,01,13,9.70
2020,12,08,01,14,9.70
2020,12,08,01,15,9.70
2020,12,08,01,16,9.70
2020,12,08,01,17,9.70
2020,12,08,01,18,9.70
2020,12,08,01,19,9.70
2020,12,08,01,20,9.70
2020,12,08,01,21,9.70
2020,12,08,01,22,9.60
2020,12,08,01,23,9.60
2020,12,08,01,24,9.60
2020,12,08,01,25,9.60
2020,12,08,01,26,9.60
2020,12,08,01,27,9.60
2020,12,08,01,28,9.60
2020,12,08,01,29,9.60
2020,12,08,01,30,9.60
2020,12,08,01,31,9.60
2020,12,08,01,32,9.60
2020,12,08,01,33,9.60
2020,12,08,01,34,9.70
2020,12,08,01,35,9.70
2020,12,08,01,36,9.70
2020,12,08,01,37,9.70
2020,12,08,01,38,9.70
2020,12,08,01,39,9.70
2020,12,08,01,40,9.80
2020,12,08,01,41,9.80
2020,12,08,01,42,9.80
2020,12,08,01,43,9.80
2020,12,08,01,44,9.80
2020,12,08,01,45,9.70
2020,12,08,01,46,9.70
2020,12,08,01,47,9.70
2020,12,08,01,48,9.70
2020,12,08,01,49,9.70
2020,12,08,01,50,9.70
2020,12,08,01,51,9.70
2020,12,08,01,52,9.70
2020,12,08,01,53,9.70
2020,12,08,01,54,9.70
2020,12,08,01,55,9.70
2020,12,08,01,56,9.70
2020,12,08,01,57,9.70
2020,12,08,01,58,9.70
2020,12,08,01,59,9.70
2020,12,08,02,00,9.70
2020,12,08,02,01,9.70
2020,12,08,02,02,9.70
2020,12,08,02,03,9.70
2020,12,08,02,04,9.70
2020,12,08,02,05,9.70
2020,12,08,02,06,9.70
2020,12,08,02,07,9.70
2020,12,08,02,08,9.70
2020,12,08,02,09,9.70
2020,12,08,02,10,9.70
2020,12,08,02,11,9.70
2020,12,08,02,12,9.70
2020,12,08,02,13,9.70
2020,12,08,02,14,9.70
2020,12,08,02,15,9.70
2020,12,08,02,16,9.70
2020,12,08,02,17,9.70
2020,12,08,02,18,9.70
2020,12,08,02,19,9.70
2020,12,08,02,20,9.70
2020,12,08,02,21,9.80
2020,12,08,02,22,9.80
2020,12,08,02,23,9.70
2020,12,08,02,24,9.70
2020,12,08,02,25,9.70
2020,12,08,02,26,9.70
2020,12,08,02,27,9.70
2020,12,08,02,28,9.70
2020,12,08,02,29,9.70
2020,12,08,02,30,9.70
2020,12,08,02,31,9.70
2020,12,08,02,32,9.70
2020,12,08,02,33,9.70
2020,12,08,02,34,9.70
2020,12,08,02,35,9.70
2020,12,08,02,36,9.80
2020,12,08,02,37,9.80
2020,12,08,02,38,9.80
2020,12,08,02,39,9.80
2020,12,08,02,40,9.70
2020,12,08,02,41,9.70
2020,12,08,02,42,9.70
2020,12,08,02,43,9.70
2020,12,08,02,44,9.70
2020,12,08,02,45,9.70
2020,12,08,02,46,9.70
2020,12,08,02,47,9.70
2020,12,08,02,48,9.70
2020,12,08,02,49,9.80
2020,12,08,02,50,9.90
2020,12,08,02,51,9.90
2020,12,08,02,52,9.90
2020,12,08,02,53,10.00
2020,12,08,02,54,10.00
2020,12,08,02,55,10.10
2020,12,08,02,56,10.10
2020,12,08,02,57,10.10
2020,12,08,02,58,10.10
2020,12,08,02,59,10.10
2020,12,08,03,00,10.10
2020,12,08,03,01,10.40
2020,12,08,03,02,11.00
2020,12,08,03,03,11.10
2020,12,08,03,04,11.20
2020,12,08,03,05,11.30
2020,12,08,03,06,11.40
2020,12,08,03,07,11.40
2020,12,08,03,08,11.50
2020,12,08,03,09,11.60
2020,12,08,03,10,11.60
2020,12,08,03,11,11.60
2020,12,08,03,12,11.70
2020,12,08,03,13,11.70
2020,12,08,03,14,11.70
2020,12,08,03,15,11.70
2020,12,08,03,16,11.70
2020,12,08,03,17,11.70
2020,12,08,03,18,11.70
2020,12,08,03,19,11.80
2020,12,08,03,20,11.80
2020,12,08,03,21,11.80
2020,12,08,03,22,11.90
2020,12,08,03,23,11.90
2020,12,08,03,24,11.90
2020,12,08,03,25,12.00
2020,12,08,03,26,12.00
2020,12,08,03,27,12.10
2020,12,08,03,28,12.20
2020,12,08,03,29,12.20
2020,12,08,03,30,12.30
2020,12,08,03,31,12.30
2020,12,08,03,32,12.30
2020,12,08,03,33,12.40
2020,12,08,03,34,12.40
2020,12,08,03,35,12.50
2020,12,08,03,36,12.60
2020,12,08,03,37,12.60
2020,12,08,03,38,12.70
2020,12,08,03,39,12.70
2020,12,08,03,40,12.80
2020,12,08,03,41,12.80
2020,12,08,03,42,12.80
2020,12,08,03,43,12.80
2020,12,08,03,44,12.80
2020,12,08,03,45,12.80
2020,12,08,03,46,12.80
2020,12,08,03,47,12.80
2020,12,08,03,48,12.80
2020,12,08,03,49,12.80
2020,12,08,03,50,12.80
2020,12,08,03,51,12.80
2020,12,08,03,52,12.80
2020,12,08,03,53,12.80
2020,12,08,03,54,12.80
2020,12,08,03,55,12.90
2020,12,08,03,56,12.90
2020,12,08,03,57,12.90
2020,12,08,03,58,12.90
2020,12,08,03,59,12.90
2020,12,08,04,00,12.90
2020,12,08,04,01,12.90
2020,12,08,04,02,12.90
2020,12,08,04,03,12.90
2020,12,08,04,04,12.90
2020,12,08,04,05,12.90
2020,12,08,04,06,12.90
2020,12,08,04,07,12.90
2020,12,08,04,08,12.90
2020,12,08,04,09,12.90
2020,12,08,04,10,12.90
2020,12,08,04,11,12.90
2020,12,08,04,12,12.90
2020,12,08,04,13,12.80
2020,12,08,04,14,12.80
2020,12,08,04,15,12.80
2020,12,08,04,16,12.80
2020,12,08,04,17,12.80
2020,12,08,04,18,12.80
2020,12,08,04,19,12.80
2020,12,08,04,20,12.80
2020,12,08,04,21,12.80
2020,12,08,04,22,12.80
2020,12,08,04,23,12.70
2020,12,08,04,24,12.70
2020,12,08,04,25,12.70
2020,12,08,04,26,12.70
2020,12,08,04,27,12.70
2020,12,08,04,28,12.70
2020,12,08,04,29,12.80
2020,12,08,04,30,12.80
2020,12,08,04,31,12.80
2020,12,08,04,32,12.80
2020,12,08,04,33,12.80
2020,12,08,04,34,12.80
2020,12,08,04,35,12.80
2020,12,08,04,36,12.80
2020,12,08,04,37,12.80
2020,12,08,04,38,12.80
2020,12,08,04,39,12.70
2020,12,08,04,40,12.70
2020,12,08,04,41,12.70
2020,12,08,04,42,12.70
2020,12,08,04,43,12.70
2020,12,08,04,44,12.70
2020,12,08,04,45,12.70
2020,12,08,04,46,12.60
2020,12,08,04,47,12.60
2020,12,08,04,48,12.60
2020,12,08,04,49,12.60
2020,12,08,04,50,12.60
2020,12,08,04,51,12.60
2020,12,08,04,52,12.60
2020,12,08,04,53,12.60
2020,12,08,04,54,12.60
2020,12,08,04,55,12.60
2020,12,08,04,56,12.60
2020,12,08,04,57,12.60
2020,12,08,04,58,12.60
2020,12,08,04,59,12.60
2020,12,08,05,00,12.50
2020,12,08,05,01,12.50
2020,12,08,05,02,12.50
2020,12,08,05,03,12.50
2020,12,08,05,04,12.50
2020,12,08,05,05,12.50
2020,12,08,05,06,12.50
2020,12,08,05,07,12.40
2020,12,08,05,08,12.40
2020,12,08,05,09,12.40
2020,12,08,05,10,12.50
2020,12,08,05,11,12.40
2020,12,08,05,12,12.50
2020,12,08,05,13,12.50
2020,12,08,05,14,12.50
2020,12,08,05,15,12.40
2020,12,08,05,16,12.50
2020,12,08,05,17,12.40
2020,12,08,05,18,12.40
2020,12,08,05,19,12.40
2020,12,08,05,20,12.50
2020,12,08,05,21,12.50
2020,12,08,05,22,12.50
2020,12,08,05,23,12.50
2020,12,08,05,24,12.50
2020,12,08,05,25,12.50
2020,12,08,05,26,12.50
2020,12,08,05,27,12.50
2020,12,08,05,28,12.50
2020,12,08,05,29,12.50
2020,12,08,05,30,12.50
2020,12,08,05,31,12.50
2020,12,08,05,32,12.60
2020,12,08,05,33,12.50
2020,12,08,05,34,12.50
2020,12,08,05,35,12.50
2020,12,08,05,36,12.50
2020,12,08,05,37,12.40
2020,12,08,05,38,12.40
2020,12,08,05,39,12.40
2020,12,08,05,40,12.40
2020,12,08,05,41,12.40
2020,12,08,05,42,12.40
2020,12,08,05,43,12.40
2020,12,08,05,44,12.40
2020,12,08,05,45,12.40
2020,12,08,05,46,12.40
2020,12,08,05,47,12.40
2020,12,08,05,48,12.40
2020,12,08,05,49,12.40
2020,12,08,05,50,12.40
2020,12,08,05,51,12.40
2020,12,08,05,52,12.40
2020,12,08,05,53,12.40
2020,12,08,05,54,12.40
2020,12,08,05,55,12.50
2020,12,08,05,56,12.50
2020,12,08,05,57,12.50
2020,12,08,05,58,12.50
2020,12,08,05,59,12.50
2020,12,08,06,00,12.50
2020,12,08,06,01,12.40
2020,12,08,06,02,12.40
2020,12,08,06,03,12.40
2020,12,08,06,04,12.50
2020,12,08,06,05,12.50
2020,12,08,06,06,12.50
2020,12,08,06,07,12.50
2020,12,08,06,08,12.60
2020,12,08,06,09,12.60
2020,12,08,06,10,12.60
2020,12,08,06,11,12.60
2020,12,08,06,12,12.60
2020,12,08,06,13,12.60
2020,12,08,06,14,12.60
2020,12,08,06,15,12.60
2020,12,08,06,16,12.60
2020,12,08,06,17,12.60
2020,12,08,06,18,12.70
2020,12,08,06,19,12.70
2020,12,08,06,20,12.70
2020,12,08,06,21,12.70
2020,12,08,06,22,12.70
2020,12,08,06,23,12.70
2020,12,08,06,24,12.70
2020,12,08,06,25,12.60
2020,12,08,06,26,12.60
2020,12,08,06,27,12.60
2020,12,08,06,28,12.60
2020,12,08,06,29,12.60
2020,12,08,06,30,12.60
2020,12,08,06,31,12.60
2020,12,08,06,32,12.60
2020,12,08,06,33,12.60
2020,12,08,06,34,12.60
2020,12,08,06,35,12.60
2020,12,08,06,36,12.60
2020,12,08,06,37,12.60
2020,12,08,06,38,12.60
2020,12,08,06,39,12.60
2020,12,08,06,40,12.60
2020,12,08,06,41,12.60
2020,12,08,06,42,12.60
2020,12,08,06,43,12.60
2020,12,08,06,44,12.60
2020,12,08,06,45,12.60
2020,12,08,06,46,12.60
2020,12,08,06,47,12.60
2020,12,08,06,48,12.60
2020,12,08,06,49,12.60
2020,12,08,06,50,12.60
2020,12,08,06,51,12.60
2020,12,08,06,52,12.60
2020,12,08,06,53,12.60
2020,12,08,06,54,12.60
2020,12,08,06,55,12.60
2020,12,08,06,56,12.60
2020,12,08,06,57,12.60
2020,12,08,06,58,12.60
2020,12,08,06,59,12.60
2020,12,08,07,00,12.60
2020,12,08,07,01,12.60
2020,12,08,07,02,12.60
2020,12,08,07,03,12.60
2020,12,08,07,04,12.60
2020,12,08,07,05,12.60
2020,12,08,07,06,12.60
2020,12,08,07,07,12.60
2020,12,08,07,08,12.50
2020,12,08,07,09,12.60
2020,12,08,07,10,12.60
2020,12,08,07,11,12.60
2020,12,08,07,12,12.60
2020,12,08,07,13,12.60
2020,12,08,07,14,12.60
2020,12,08,07,15,12.60
2020,12,08,07,16,12.60
2020,12,08,07,17,12.60
2020,12,08,07,18,12.60
2020,12,08,07,19,12.60
2020,12,08,07,20,12.50
2020,12,08,07,21,12.50
2020,12,08,07,22,12.50
2020,12,08,07,23,12.50
2020,12,08,07,24,12.50
2020,12,08,07,25,12.50
2020,12,08,07,26,12.50
2020,12,08,07,27,12.50
2020,12,08,07,28,12.50
2020,12,08,07,29,12.50
2020,12,08,07,30,12.50
2020,12,08,07,31,12.50
2020,12,08,07,32,12.50
2020,12,08,07,33,12.50
2020,12,08,07,34,12.50
2020,12,08,07,35,12.50
2020,12,08,07,36,12.50
2020,12,08,07,37,12.50
2020,12,08,07,38,12.50
2020,12,08,07,39,12.50
2020,12,08,07,40,12.50
2020,12,08,07,41,12.50
2020,12,08,07,42,12.40
2020,12,08,07,43,12.40
2020,12,08,07,44,12.40
2020,12,08,07,45,12.40
2020,12,08,07,46,12.40
2020,12,08,07,47,12.40
2020,12,08,07,48,12.40
2020,12,08,07,49,12.40
2020,12,08,07,50,12.30
2020,12,08,07,51,12.30
2020,12,08,07,52,12.30
2020,12,08,07,53,12.30
2020,12,08,07,54,12.30
2020,12,08,07,55,12.30
2020,12,08,07,56,12.30
2020,12,08,07,57,12.30
2020,12,08,07,58,12.30
2020,12,08,07,59,12.30
2020,12,08,08,00,12.40
2020,12,08,08,01,12.40
2020,12,08,08,02,12.40
2020,12,08,08,03,12.40
2020,12,08,08,04,12.40
2020,12,08,08,05,12.40
2020,12,08,08,06,12.40
2020,12,08,08,07,12.40
2020,12,08,08,08,12.40
2020,12,08,08,09,12.40
2020,12,08,08,10,12.40
2020,12,08,08,11,12.40
2020,12,08,08,12,12.40
2020,12,08,08,13,12.40
2020,12,08,08,14,12.40
2020,12,08,08,15,12.40
2020,12,08,08,16,12.30
2020,12,08,08,17,12.30
2020,12,08,08,18,12.30
2020,12,08,08,19,12.30
2020,12,08,08,20,12.30
2020,12,08,08,21,12.30
2020,12,08,08,22,12.30
2020,12,08,08,23,12.30
2020,12,08,08,24,12.30
2020,12,08,08,25,12.30
2020,12,08,08,26,12.10
2020,12,08,08,27,11.90
2020,12,08,08,28,11.80
2020,12,08,08,29,11.70
2020,12,08,08,30,11.60
2020,12,08,08,31,11.40
2020,12,08,08,32,11.30
2020,12,08,08,33,11.20
2020,12,08,08,34,11.10
2020,12,08,08,35,11.10
2020,12,08,08,36,11.00
2020,12,08,08,37,10.90
2020,12,08,08,38,10.90
2020,12,08,08,39,10.80
2020,12,08,08,40,10.80
2020,12,08,08,41,10.80
2020,12,08,08,42,10.70
2020,12,08,08,43,10.70
2020,12,08,08,44,10.70
2020,12,08,08,45,10.70
2020,12,08,08,46,10.60
2020,12,08,08,47,10.60
2020,12,08,08,48,10.60
2020,12,08,08,49,10.60
2020,12,08,08,50,10.60
2020,12,08,08,51,10.70
2020,12,08,08,52,10.80
2020,12,08,08,53,10.90
2020,12,08,08,54,11.00
2020,12,08,08,55,11.20
2020,12,08,08,56,11.30
2020,12,08,08,57,11.40
2020,12,08,08,58,11.50
2020,12,08,08,59,11.60
2020,12,08,09,00,11.60
2020,12,08,09,01,11.70
2020,12,08,09,02,11.70
2020,12,08,09,03,11.80
2020,12,08,09,04,11.80
2020,12,08,09,05,11.90
2020,12,08,09,06,11.90
2020,12,08,09,07,11.90
2020,12,08,09,08,12.00
2020,12,08,09,09,12.00
2020,12,08,09,10,12.00
2020,12,08,09,11,12.10
2020,12,08,09,12,12.10
2020,12,08,09,13,12.10
2020,12,08,09,14,12.10
2020,12,08,09,15,12.10
2020,12,08,09,16,12.10
2020,12,08,09,17,12.10
2020,12,08,09,18,12.10
2020,12,08,09,19,12.10
2020,12,08,09,20,12.10
2020,12,08,09,21,12.10
2020,12,08,09,22,12.10
2020,12,08,09,23,12.10
2020,12,08,09,24,12.10
2020,12,08,09,25,12.10
2020,12,08,09,26,12.10
2020,12,08,09,27,12.10
2020,12,08,09,28,12.20
2020,12,08,09,29,12.20
2020,12,08,09,30,12.20
2020,12,08,09,31,12.20
2020,12,08,09,32,12.20
2020,12,08,09,33,12.20
2020,12,08,09,34,12.20
2020,12,08,09,35,12.20
2020,12,08,09,36,12.20
2020,12,08,09,37,12.10
2020,12,08,09,38,12.10
2020,12,08,09,39,12.10
2020,12,08,09,40,12.10
2020,12,08,09,41,12.10
2020,12,08,09,42,12.20
2020,12,08,09,43,12.20
2020,12,08,09,44,12.20
2020,12,08,09,45,12.20
2020,12,08,09,46,12.20
2020,12,08,09,47,12.20
2020,12,08,09,48,12.20
2020,12,08,09,49,12.20
2020,12,08,09,50,12.20
2020,12,08,09,51,12.20
2020,12,08,09,52,12.20
2020,12,08,09,53,12.20
2020,12,08,09,54,12.20
2020,12,08,09,55,12.20
2020,12,08,09,56,12.20
2020,12,08,09,57,12.20
2020,12,08,09,58,12.20
2020,12,08,09,59,12.20
2020,12,08,10,00,12.20
2020,12,08,10,01,12.20
2020,12,08,10,02,12.20
2020,12,08,10,03,12.20
2020,12,08,10,04,12.20
2020,12,08,10,05,12.20
2020,12,08,10,06,12.20
2020,12,08,10,07,12.20
2020,12,08,10,08,12.20
2020,12,08,10,09,12.20
2020,12,08,10,10,12.10
2020,12,08,10,11,12.10
2020,12,08,10,12,12.10
2020,12,08,10,13,12.10
2020,12,08,10,14,12.00
2020,12,08,10,15,12.00
2020,12,08,10,16,12.00
2020,12,08,10,17,12.00
2020,12,08,10,18,12.00
2020,12,08,10,19,12.00
2020,12,08,10,20,11.90
2020,12,08,10,21,11.90
2020,12,08,10,22,11.90
2020,12,08,10,23,11.90
2020,12,08,10,24,11.90
2020,12,08,10,25,11.90
2020,12,08,10,26,11.90
2020,12,08,10,27,11.90
2020,12,08,10,28,11.90
2020,12,08,10,29,11.90
2020,12,08,10,30,12.00
2020,12,08,10,31,12.00
2020,12,08,10,32,12.00
2020,12,08,10,33,12.00
2020,12,08,10,34,12.00
2020,12,08,10,35,12.00
2020,12,08,10,36,12.00
2020,12,08,10,37,12.00
2020,12,08,10,38,12.00
2020,12,08,10,39,12.00
2020,12,08,10,40,12.10
2020,12,08,10,41,12.10
2020,12,08,10,42,12.10
2020,12,08,10,43,12.10
2020,12,08,10,44,12.10
2020,12,08,10,45,12.10
2020,12,08,10,46,12.10
2020,12,08,10,47,12.10
2020,12,08,10,48,12.10
2020,12,08,10,49,12.10
2020,12,08,10,50,12.10
2020,12,08,10,51,12.10
2020,12,08,10,52,12.10
2020,12,08,10,53,12.10
2020,12,08,10,54,12.10
2020,12,08,10,55,12.00
2020,12,08,10,56,11.90
2020,12,08,10,57,11.70
2020,12,08,10,58,11.60
2020,12,08,10,59,11.50
2020,12,08,11,00,11.50
2020,12,08,11,01,11.40
2020,12,08,11,02,11.30
2020,12,08,11,03,11.30
2020,12,08,11,04,11.30
2020,12,08,11,05,11.20
2020,12,08,11,06,11.20
2020,12,08,11,07,11.20
2020,12,08,11,08,11.20
2020,12,08,11,09,11.10
2020,12,08,11,10,11.10
2020,12,08,11,11,11.10
2020,12,08,11,12,11.10
2020,12,08,11,13,11.10
2020,12,08,11,14,11.10
2020,12,08,11,15,11.10
2020,12,08,11,16,11.20
2020,12,08,11,17,11.20
2020,12,08,11,18,11.30
2020,12,08,11,19,11.30
2020,12,08,11,20,11.40
2020,12,08,11,21,11.50
2020,12,08,11,22,11.50
2020,12,08,11,23,11.60
2020,12,08,11,24,11.70
2020,12,08,11,25,11.70
2020,12,08,11,26,11.80
2020,12,08,11,27,11.80
2020,12,08,11,28,11.80
2020,12,08,11,29,11.90
2020,12,08,11,30,11.90
2020,12,08,11,31,11.90
2020,12,08,11,32,11.90
2020,12,08,11,33,12.00
2020,12,08,11,34,12.00
2020,12,08,11,35,12.00
2020,12,08,11,36,12.10
2020,12,08,11,37,12.10
2020,12,08,11,38,12.10
2020,12,08,11,39,12.10
2020,12,08,11,40,12.10
2020,12,08,11,41,12.10
2020,12,08,11,42,12.10
2020,12,08,11,43,12.10
2020,12,08,11,44,12.10
2020,12,08,11,45,12.10
2020,12,08,11,46,12.10
2020,12,08,11,47,12.10
2020,12,08,11,48,12.10
2020,12,08,11,49,12.10
2020,12,08,11,50,12.10
2020,12,08,11,51,12.10
2020,12,08,11,52,12.10
2020,12,08,11,53,12.10
2020,12,08,11,54,12.10
2020,12,08,11,55,12.10
2020,12,08,11,56,12.10
2020,12,08,11,57,12.10
2020,12,08,11,58,12.10
2020,12,08,11,59,12.10
2020,12,08,12,00,12.10
2020,12,08,12,01,12.10
2020,12,08,12,02,12.10
2020,12,08,12,03,12.10
2020,12,08,12,04,12.10
2020,12,08,12,05,12.10
2020,12,08,12,06,12.10
2020,12,08,12,07,12.10
2020,12,08,12,08,12.10
2020,12,08,12,09,12.10
2020,12,08,12,10,12.10
2020,12,08,12,11,12.10
2020,12,08,12,12,12.10
2020,12,08,12,13,12.10
2020,12,08,12,14,12.10
2020,12,08,12,15,12.10
2020,12,08,12,16,12.10
2020,12,08,12,17,12.10
2020,12,08,12,18,12.10
2020,12,08,12,19,12.10
2020,12,08,12,20,12.10
2020,12,08,12,21,12.10
2020,12,08,12,22,12.10
2020,12,08,12,23,12.10
2020,12,08,12,24,12.10
2020,12,08,12,25,12.10
2020,12,08,12,26,12.10
2020,12,08,12,27,12.10
2020,12,08,12,28,12.10
2020,12,08,12,29,12.10
2020,12,08,12,30,12.10
2020,12,08,12,31,12.10
2020,12,08,12,32,12.10
2020,12,08,12,33,12.10
2020,12,08,12,34,12.10
2020,12,08,12,35,12.10
2020,12,08,12,36,12.10
2020,12,08,12,37,12.10
2020,12,08,12,38,12.10
2020,12,08,12,39,12.10
2020,12,08,12,40,12.10
2020,12,08,12,41,12.10
2020,12,08,12,42,12.10
2020,12,08,12,43,12.10
2020,12,08,12,44,12.10
2020,12,08,12,45,12.10
2020,12,08,12,46,12.10
2020,12,08,12,47,12.10
2020,12,08,12,48,12.00
2020,12,08,12,49,12.00
2020,12,08,12,50,12.00
2020,12,08,12,51,12.10
2020,12,08,12,52,12.10
2020,12,08,12,53,12.10
2020,12,08,12,54,12.10
2020,12,08,12,55,12.10
2020,12,08,12,56,12.10
2020,12,08,12,57,12.00
2020,12,08,12,58,12.00
2020,12,08,12,59,12.00
2020,12,08,13,00,11.90
2020,12,08,13,01,11.90
2020,12,08,13,02,11.90
2020,12,08,13,03,11.90
2020,12,08,13,04,11.90
2020,12,08,13,05,11.90
2020,12,08,13,06,11.90
2020,12,08,13,07,11.90
2020,12,08,13,08,11.90
2020,12,08,13,09,11.90
2020,12,08,13,10,11.90
2020,12,08,13,11,11.90
2020,12,08,13,12,11.90
2020,12,08,13,13,11.90
2020,12,08,13,14,11.90
2020,12,08,13,15,11.90
2020,12,08,13,16,11.90
2020,12,08,13,17,11.90
2020,12,08,13,18,11.90
2020,12,08,13,19,11.90
2020,12,08,13,20,11.90
2020,12,08,13,21,11.90
2020,12,08,13,22,11.90
2020,12,08,13,23,11.90
2020,12,08,13,24,11.90
2020,12,08,13,25,11.90
2020,12,08,13,26,11.90
2020,12,08,13,27,11.90
2020,12,08,13,28,11.90
2020,12,08,13,29,11.90
2020,12,08,13,30,11.90
2020,12,08,13,31,11.90
2020,12,08,13,32,11.90
2020,12,08,13,33,11.90
2020,12,08,13,34,11.90
2020,12,08,13,35,11.90
2020,12,08,13,36,11.90
2020,12,08,13,37,11.90
2020,12,08,13,38,11.90
2020,12,08,13,39,11.80
2020,12,08,13,40,11.80
2020,12,08,13,41,11.80
2020,12,08,13,42,11.80
2020,12,08,13,43,11.80
2020,12,08,13,44,11.80
2020,12,08,13,45,11.80
2020,12,08,13,46,11.80
2020,12,08,13,47,11.80
2020,12,08,13,48,11.80
2020,12,08,13,49,11.80
2020,12,08,13,50,11.80
2020,12,08,13,51,11.80
2020,12,08,13,52,11.80
2020,12,08,13,53,11.80
2020,12,08,13,54,11.80
2020,12,08,13,55,11.80
2020,12,08,13,56,11.80
2020,12,08,13,57,11.80
2020,12,08,13,58,11.80
2020,12,08,13,59,11.80
2020,12,08,14,00,11.80
2020,12,08,14,01,11.80
2020,12,08,14,02,11.80
2020,12,08,14,03,11.80
2020,12,08,14,04,11.80
2020,12,08,14,05,11.80
2020,12,08,14,06,11.80
2020,12,08,14,07,11.80
2020,12,08,14,08,11.80
2020,12,08,14,09,11.80
2020,12,08,14,10,11.80
2020,12,08,14,11,11.80
2020,12,08,14,12,11.80
2020,12,08,14,13,11.80
2020,12,08,14,14,11.80
2020,12,08,14,15,11.80
2020,12,08,14,16,11.70
2020,12,08,14,17,11.70
2020,12,08,14,18,11.70
2020,12,08,14,19,11.70
2020,12,08,14,20,11.70
2020,12,08,14,21,11.70
2020,12,08,14,22,11.70
2020,12,08,14,23,11.70
2020,12,08,14,24,11.70
2020,12,08,14,25,11.70
2020,12,08,14,26,11.70
2020,12,08,14,27,11.70
2020,12,08,14,28,11.70
2020,12,08,14,29,11.70
2020,12,08,14,30,11.70
2020,12,08,14,31,11.70
2020,12,08,14,32,11.70
2020,12,08,14,33,11.70
2020,12,08,14,34,11.70
2020,12,08,14,35,11.70
2020,12,08,14,36,11.70
2020,12,08,14,37,11.70
2020,12,08,14,38,11.70
2020,12,08,14,39,11.70
2020,12,08,14,40,11.70
2020,12,08,14,41,11.80
2020,12,08,14,42,11.80
2020,12,08,14,43,11.80
2020,12,08,14,44,11.80
2020,12,08,14,45,11.80
2020,12,08,14,46,11.80
2020,12,08,14,47,11.80
2020,12,08,14,48,11.80
2020,12,08,14,49,11.80
2020,12,08,14,50,11.80
2020,12,08,14,51,11.70
2020,12,08,14,52,11.70
2020,12,08,14,53,11.70
2020,12,08,14,54,11.70
2020,12,08,14,55,11.70
2020,12,08,14,56,11.70
2020,12,08,14,57,11.70
2020,12,08,14,58,11.70
2020,12,08,14,59,11.70
2020,12,08,15,00,11.70
2020,12,08,15,01,11.60
2020,12,08,15,02,11.60
2020,12,08,15,03,11.60
2020,12,08,15,04,11.60
2020,12,08,15,05,11.60
2020,12,08,15,06,11.60
2020,12,08,15,07,11.60
2020,12,08,15,08,11.60
2020,12,08,15,09,11.60
2020,12,08,15,10,11.60
2020,12,08,15,11,11.60
2020,12,08,15,12,11.60
2020,12,08,15,13,11.60
2020,12,08,15,14,11.60
2020,12,08,15,15,11.60
2020,12,08,15,16,11.60
2020,12,08,15,17,11.60
2020,12,08,15,18,11.60
2020,12,08,15,19,11.60
2020,12,08,15,20,11.60
2020,12,08,15,21,11.60
2020,12,08,15,22,11.60
2020,12,08,15,23,11.60
2020,12,08,15,24,11.60
2020,12,08,15,25,11.60
2020,12,08,15,26,11.60
2020,12,08,15,27,11.60
2020,12,08,15,28,11.60
2020,12,08,15,29,11.60
2020,12,08,15,30,11.60
2020,12,08,15,31,11.60
2020,12,08,15,32,11.70
2020,12,08,15,33,11.70
2020,12,08,15,34,11.70
2020,12,08,15,35,11.70
2020,12,08,15,36,11.70
2020,12,08,15,37,11.70
2020,12,08,15,38,11.70
2020,12,08,15,39,11.60
2020,12,08,15,40,11.60
2020,12,08,15,41,11.60
2020,12,08,15,42,11.60
2020,12,08,15,43,11.60
2020,12,08,15,44,11.60
2020,12,08,15,45,11.60
2020,12,08,15,46,11.60
2020,12,08,15,47,11.60
2020,12,08,15,48,11.50
2020,12,08,15,49,11.50
2020,12,08,15,50,11.50
2020,12,08,15,51,11.50
2020,12,08,15,52,11.50
2020,12,08,15,53,11.50
2020,12,08,15,54,11.50
2020,12,08,15,55,11.40
2020,12,08,15,56,11.40
2020,12,08,15,57,11.40
2020,12,08,15,58,11.40
2020,12,08,15,59,11.40
2020,12,08,16,00,11.40
2020,12,08,16,01,11.40
2020,12,08,16,02,11.40
2020,12,08,16,03,11.40
2020,12,08,16,04,11.40
2020,12,08,16,05,11.40
2020,12,08,16,06,11.40
2020,12,08,16,07,11.40
2020,12,08,16,08,11.40
2020,12,08,16,09,11.40
2020,12,08,16,10,11.40
2020,12,08,16,11,11.40
2020,12,08,16,12,11.40
2020,12,08,16,13,11.40
2020,12,08,16,14,11.40
2020,12,08,16,15,11.40
2020,12,08,16,16,11.40
2020,12,08,16,17,11.40
2020,12,08,16,18,11.40
2020,12,08,16,19,11.40
2020,12,08,16,20,11.40
2020,12,08,16,21,11.40
2020,12,08,16,22,11.40
2020,12,08,16,23,11.40
2020,12,08,16,24,11.40
2020,12,08,16,25,11.40
2020,12,08,16,26,11.40
2020,12,08,16,27,11.40
2020,12,08,16,28,11.40
2020,12,08,16,29,11.30
2020,12,08,16,30,11.30
2020,12,08,16,31,11.30
2020,12,08,16,32,11.30
2020,12,08,16,33,11.20
2020,12,08,16,34,11.20
2020,12,08,16,35,11.20
2020,12,08,16,36,11.20
2020,12,08,16,37,11.20
2020,12,08,16,38,11.20
2020,12,08,16,39,11.20
2020,12,08,16,40,11.20
2020,12,08,16,41,11.20
2020,12,08,16,42,11.20
2020,12,08,16,43,11.20
2020,12,08,16,44,11.20
2020,12,08,16,45,11.30
2020,12,08,16,46,11.30
2020,12,08,16,47,11.30
2020,12,08,16,48,11.30
2020,12,08,16,49,11.30
2020,12,08,16,50,11.30
2020,12,08,16,51,11.30
2020,12,08,16,52,11.30
2020,12,08,16,53,11.30
2020,12,08,16,54,11.30
2020,12,08,16,55,11.30
2020,12,08,16,56,11.30
2020,12,08,16,57,11.20
2020,12,08,16,58,11.20
2020,12,08,16,59,11.20
2020,12,08,17,00,11.20
2020,12,08,17,01,11.20
2020,12,08,17,02,11.20
2020,12,08,17,03,11.20
2020,12,08,17,04,11.10
2020,12,08,17,05,11.10
2020,12,08,17,06,11.10
2020,12,08,17,07,11.10
2020,12,08,17,08,11.10
2020,12,08,17,09,11.10
2020,12,08,17,10,11.10
2020,12,08,17,11,11.00
2020,12,08,17,12,11.00
2020,12,08,17,13,11.00
2020,12,08,17,14,11.00
2020,12,08,17,15,11.00
2020,12,08,17,16,11.00
2020,12,08,17,17,11.00
2020,12,08,17,18,10.90
2020,12,08,17,19,10.90
2020,12,08,17,20,10.90
2020,12,08,17,21,10.90
2020,12,08,17,22,10.90
2020,12,08,17,23,10.90
2020,12,08,17,24,10.90